Lapse_Rate
5.8 5.3 5.6 4.8 4.5 4.6 3.8 3.2 2.9 2.7 2.8 2.6 2.2 1.7 1.4 1.4 0.0 0.1 0.5 2.1 1.3 3.2 3.5 5.0 4.5 4.6 5.0 5.0 5.4 5.1 6.5 6.5 6.5 6.5 6.5 6.4 6.4 5.8 4.7 5.8 5.8 4.9 3.0 2.7 2.0
6.5 6.4 5.6 6.1 4.8 4.1 4.2 3.9 3.1 3.0 2.9 3.0 2.7 2.1 1.9 1.9 0.2 -0.2 1.7 3.2 2.8 4.2 4.9 5.2 5.6 5.4 4.7 4.7 5.1 6.0 6.5 6.5 6.5 6.5 6.5 6.4 5.8 5.3 6.2 5.1 5.6 3.9 2.3 2.1 2.6
7.0 6.6 6.7 5.4 5.1 4.2 3.5 3.3 3.2 3.1 3.3 3.5 3.4 3.0 2.0 2.5 1.8 3.4 4.8 2.8 4.2 3.6 4.4 4.7 5.7 6.7 5.2 5.1 4.8 5.5 6.5 6.5 6.2 5.4 5.4 6.2 5.8 6.3 6.0 6.5 4.5 5.1 2.3 2.6 3.3
7.9 7.5 6.9 6.0 5.7 4.2 3.3 3.0 3.0 3.1 3.4 3.9 3.8 3.8 2.4 2.9 6.5 6.0 5.4 4.9 4.8 3.6 4.2 5.3 5.9 6.1 6.4 6.5 5.0 6.5 6.1 5.9 6.1 5.9 6.0 6.5 6.2 6.3 5.3 5.5 4.5 2.9 2.2 2.6 2.6
7.8 7.6 6.8 6.6 5.5 4.6 3.6 2.8 2.7 3.0 3.2 3.9 4.4 4.2 2.9 4.3 2.8 3.6 6.1 5.6 4.7 5.0 5.6 6.2 6.1 5.9 6.5 6.4 5.9 6.5 6.5 6.3 6.2 6.0 6.1 6.3 6.3 6.4 6.1 4.9 3.8 4.5 3.2 2.8 2.5
7.8 7.8 7.4 6.3 5.0 4.5 3.3 2.8 2.3 2.4 2.8 3.4 5.0 5.4 4.8 6.4 3.1 5.0 4.7 5.2 5.4 6.1 7.1 6.6 6.3 6.3 5.8 6.2 6.5 6.2 6.0 6.2 6.1 6.1 6.2 6.4 6.4 5.3 6.0 4.1 3.7 3.9 2.0 3.2 3.0
7.8 7.6 7.8 7.4 6.3 4.2 3.2 2.6 2.1 2.0 2.5 3.7 5.2 6.2 7.0 1.7 2.3 3.5 2.6 4.0 4.9 6.0 6.4 7.0 7.4 7.0 6.2 6.5 6.2 6.1 6.5 6.5 6.5 5.8 6.3 5.4 6.5 6.5 4.9 4.0 4.0 3.3 2.3 2.5 2.9
7.9 7.7 7.2 7.0 5.9 4.2 3.3 2.6 1.9 1.6 2.6 3.9 5.2 6.3 6.4 2.5 3.3 2.2 3.3 4.5 5.1 6.0 6.3 6.3 6.6 6.1 6.1 5.9 6.1 6.5 6.5 6.5 6.5 6.5 6.2 5.7 6.5 6.5 4.4 3.4 3.5 2.4 1.9 2.5 2.5
7.9 7.8 7.4 6.9 5.5 4.1 3.2 2.4 1.6 1.8 2.4 3.7 4.4 5.4 5.6 5.4 3.8 4.6 4.2 5.0 7.0 7.3 6.8 7.9 7.2 5.7 6.0 6.5 6.5 6.5 6.5 6.5 6.5 6.5 6.5 6.5 6.5 6.5 5.2 4.4 5.0 3.3 1.7 2.0 3.1
7.8 7.9 7.7 7.2 5.9 4.7 3.2 2.6 2.5 3.3 4.4 5.5 7.6 6.7 5.0 5.3 6.8 6.8 6.1 6.3 7.1 6.8 6.6 6.4 4.7 6.5 6.5 6.5 6.5 6.5 6.5 6.5 6.5 6.5 6.5 6.5 6.5 6.5 5.9 5.5 5.8 3.8 1.4 3.0 3.4
7.9 7.9 7.7 7.2 6.4 5.3 3.8 1.2 6.3 5.5 6.4 6.7 6.9 7.1 5.9 7.1 7.1 6.3 6.2 6.5 7.1 6.7 6.5 6.1 6.5 6.5 6.5 6.5 6.5 6.5 6.5 6.5 6.5 6.5 6.5 6.5 6.5 6.5 6.5 5.8 6.1 5.4 2.5 3.2 3.3
7.6 8.2 7.7 7.1 6.1 5.2 4.1 5.5 7.9 8.6 6.4 7.5 6.7 6.2 6.6 6.8 7.1 5.1 6.6 6.8 6.3 6.5 6.5 6.5 6.5 6.5 6.5 6.5 6.5 6.5 6.5 6.5 6.5 6.5 6.5 6.5 6.5 6.5 6.5 6.4 6.1 5.9 3.4 3.4 3.5
7.8 7.9 7.7 7.0 6.0 4.3 4.4 6.5 7.5 6.3 6.0 6.9 7.2 7.5 7.0 6.2 6.8 6.1 6.6 5.8 6.5 6.5 6.5 6.5 6.5 6.5 6.5 6.5 6.5 6.5 6.5 6.5 6.5 6.5 6.5 6.5 6.5 6.5 6.5 6.4 5.2 4.4 2.7 2.8 3.2
7.7 7.5 7.4 7.4 4.9 4.2 5.6 6.7 5.8 5.8 6.5 6.5 6.7 6.8 7.3 7.0 6.5 5.8 6.0 6.0 6.4 6.5 6.5 6.5 6.5 6.5 6.5 6.5 6.5 6.5 6.5 6.5 6.5 6.5 6.5 6.5 6.5 6.5 6.5 6.5 6.5 5.8 3.3 2.7 4.4
7.6 7.7 7.6 7.6 5.7 4.9 6.7 6.1 5.9 5.6 6.5 6.5 6.5 7.1 6.8 6.6 6.3 6.4 6.3 6.1 6.5 6.5 6.5 6.5 6.5 6.5 6.5 6.5 6.5 6.5 6.5 6.5 6.5 6.5 6.5 6.5 6.5 6.5 6.5 6.5 6.5 6.5 4.0 2.8 3.9
7.5 7.7 7.8 6.3 4.8 5.2 6.7 6.0 4.7 6.5 6.5 6.5 6.5 6.5 6.5 6.4 6.6 6.3 6.3 5.8 5.7 6.5 6.5 6.5 6.2 6.5 6.5 6.5 6.5 6.5 6.5 6.5 6.5 6.5 6.5 6.5 6.5 6.5 6.5 6.5 6.5 6.5 5.2 3.6 4.4
7.3 7.3 7.2 7.7 4.8 6.5 6.2 5.0 6.5 6.5 6.5 6.5 6.5 6.5 6.5 6.5 6.5 6.5 6.5 6.5 6.5 6.5 6.5 6.5 6.5 6.5 6.5 6.5 6.5 6.5 6.5 6.5 6.5 6.5 6.5 6.5 6.5 6.5 6.5 6.5 6.5 6.5 6.0 3.7 4.8
7.6 7.2 6.5 6.9 6.3 6.1 6.7 6.5 6.5 6.5 6.5 6.5 6.5 6.5 6.5 6.5 6.5 6.5 6.5 6.5 6.5 6.5 6.5 6.5 6.5 6.5 6.5 6.5 6.5 6.5 6.5 6.5 6.5 6.5 6.5 6.5 6.5 6.5 6.5 6.5 6.1 5.5 4.2 5.3 6.1
7.4 5.2 5.2 3.7 6.3 5.3 6.9 6.5 6.5 6.5 6.5 6.5 6.5 6.5 6.5 6.5 6.5 6.5 6.5 6.5 6.5 6.5 6.5 6.5 6.5 6.5 6.5 6.5 6.5 6.5 6.5 6.5 6.5 6.5 6.5 6.5 6.5 6.5 6.5 6.5 6.5 6.5 5.7 6.0 6.0
6.3 6.8 6.4 5.5 5.8 6.2 6.6 6.5 6.5 6.5 6.5 6.5 6.5 6.5 6.5 6.5 6.5 6.5 6.5 6.5 6.5 6.5 6.5 6.5 6.5 6.5 6.5 6.4 6.5 6.5 6.5 6.5 6.5 6.5 6.5 6.5 6.5 6.5 6.5 6.5 6.5 6.5 6.4 6.1 6.0
6.0 6.9 5.1 6.0 4.9 6.5 6.5 6.5 6.5 6.9 6.9 6.5 6.5 6.5 6.5 6.5 6.5 6.5 6.5 6.5 6.5 6.5 6.5 6.5 6.5 6.5 6.5 6.5 6.5 6.5 6.5 6.5 6.5 6.5 6.5 6.5 6.5 6.5 6.5 6.5 6.5 6.5 5.4 5.6 5.8
6.4 6.5 5.3 5.3 6.4 6.2 6.5 6.5 6.8 6.6 7.1 6.5 6.5 6.5 6.5 6.5 6.5 6.5 6.5 6.5 6.3 6.5 6.5 6.5 6.5 6.5 6.5 6.5 6.5 6.5 6.5 6.5 6.5 6.5 6.5 6.5 6.5 6.5 6.5 6.5 6.5 6.5 6.0 4.0 4.3
6.9 6.6 5.0 6.3 6.5 6.5 6.5 6.5 6.6 6.5 6.5 6.5 6.5 6.5 6.5 6.5 6.5 6.5 6.5 6.4 6.2 6.5 6.5 6.5 6.5 6.5 6.5 6.5 6.5 6.5 6.5 6.5 6.5 6.5 6.5 6.5 6.5 6.5 6.5 6.5 6.6 6.4 6.4 5.2 4.4
6.5 6.5 4.8 4.7 4.5 6.5 6.5 6.5 6.5 6.8 6.5 6.7 6.5 6.5 6.5 6.5 6.5 6.5 6.5 6.5 6.3 6.4 6.5 6.4 6.5 6.5 6.5 6.5 6.5 6.5 6.5 6.5 6.5 6.5 6.5 6.5 6.5 6.5 6.5 6.5 6.5 6.6 6.5 6.6 6.4
6.4 6.0 6.3 6.5 6.4 6.5 6.5 6.5 6.5 6.5 6.6 6.7 6.5 6.5 6.5 6.5 6.5 6.5 6.5 6.5 6.5 6.6 6.5 6.5 6.5 6.5 6.5 6.5 6.5 6.5 6.5 6.5 6.5 6.5 6.5 6.5 6.5 6.5 6.5 6.5 6.5 6.5 6.9 6.9 7.0
6.6 6.6 6.2 6.8 6.7 6.5 6.5 6.5 6.5 6.5 6.5 6.5 6.5 6.5 6.5 6.5 6.5 6.5 6.5 6.5 6.5 6.5 6.5 6.5 6.5 6.5 6.5 6.5 6.5 6.5 6.5 6.5 6.5 6.5 6.5 6.5 6.5 6.5 6.6 6.4 6.7 6.4 6.8 7.0 7.2
6.3 6.3 6.7 6.6 6.5 6.5 6.5 6.5 6.5 6.5 6.7 6.8 6.6 6.5 6.5 6.5 6.4 6.0 5.9 6.0 6.4 6.5 6.5 6.5 6.5 6.5 6.5 6.5 6.5 6.5 6.5 6.5 6.5 6.5 6.5 6.5 6.5 6.5 6.5 6.5 6.7 6.6 6.8 7.1 7.5
Wind_Speed
16 16 18 18 19 20 20 20 21 22 22 24 26 28 30 29 33 9 7 10 9 16 6 5 5 5 4 3 4 3 1 4 6 10 11 11 8 9 7 2 4 6 8 7 15
14 16 15 18 18 17 19 21 22 23 22 24 25 26 28 28 16 11 13 15 19 13 5 7 6 6 3 5 4 6 5 9 9 6 12 17 6 12 7 11 5 3 6 12 16
12 15 17 17 19 20 20 21 24 25 24 24 24 25 27 26 6 6 8 18 12 11 3 1 4 5 6 3 6 6 13 8 8 10 13 18 11 19 9 8 9 6 8 14 11
13 15 17 18 20 21 21 22 24 25 26 25 24 23 27 4 4 4 5 3 6 4 3 3 4 3 5 8 8 7 8 8 13 14 15 20 19 18 8 12 9 9 16 13 12
13 17 18 19 21 22 23 23 26 27 26 24 23 20 8 3 11 11 9 5 5 4 5 4 5 5 5 5 5 10 16 15 15 16 20 19 22 21 23 16 10 7 15 15 11
14 17 19 20 22 24 25 26 27 28 27 24 21 15 3 7 6 10 6 8 7 5 4 5 5 5 6 6 8 4 11 16 14 17 18 18 20 9 20 12 9 9 15 18 14
15 17 19 19 24 25 27 28 30 30 28 25 19 7 9 20 5 13 10 4 4 4 4 2 2 1 2 5 4 4 12 16 17 12 11 9 16 20 14 12 10 10 10 12 14
15 19 17 19 23 25 28 32 34 35 30 25 15 5 9 7 14 11 5 7 8 7 5 7 4 4 4 5 6 5 5 8 8 11 11 8 22 16 10 10 13 12 9 10 11
15 17 19 21 23 27 31 36 41 36 25 11 4 4 10 10 4 9 8 5 5 4 3 6 2 5 3 1 4 4 13 12 9 6 8 8 22 10 10 10 14 12 9 12 12
16 17 19 21 25 27 32 39 33 18 5 9 3 5 8 4 2 6 2 7 5 2 3 3 2 2 2 3 11 5 7 7 9 2 7 17 21 18 16 13 17 13 9 11 15
16 16 20 22 26 27 25 6 6 4 3 8 6 6 11 4 3 3 4 7 3 2 3 3 2 7 7 8 6 8 12 14 11 11 6 17 19 18 20 12 17 15 10 13 18
11 14 19 22 27 28 7 4 12 13 13 13 20 24 25 11 10 17 1 3 5 5 3 2 6 10 8 6 8 12 15 17 12 12 13 15 20 18 21 13 18 19 11 15 9
15 14 17 20 28 7 6 3 18 17 5 12 12 9 10 17 14 22 8 6 4 4 5 8 5 5 5 4 9 13 12 8 8 15 21 16 20 9 17 17 9 10 10 11 19
17 16 15 19 6 6 6 17 25 9 4 8 8 8 8 7 6 11 10 6 5 7 5 5 3 1 2 5 9 14 8 8 10 12 9 3 7 12 15 19 14 7 9 11 18
16 16 14 10 4 3 7 22 23 1 4 2 6 8 10 9 4 4 6 4 9 6 6 5 2 2 4 6 8 11 7 8 8 10 5 10 3 11 6 16 17 9 9 13 20
16 16 13 6 2 6 17 18 3 0 9 6 4 8 8 6 2 4 4 5 4 5 3 6 3 5 7 2 7 8 4 12 6 3 7 13 5 12 8 10 14 10 5 14 20
15 14 7 1 4 11 12 5 2 6 8 4 3 9 12 7 8 7 7 6 6 5 4 3 6 4 4 2 4 3 4 4 4 5 9 3 9 16 10 14 14 17 19 16 20
13 11 4 8 11 6 3 2 8 7 9 15 14 11 12 7 6 10 9 5 4 3 3 4 4 4 3 7 3 11 7 3 5 4 7 11 8 10 13 19 16 15 5 15 21
11 2 3 5 14 4 2 5 6 5 4 14 16 2 6 5 1 6 9 6 6 7 6 4 4 1 6 4 8 4 7 3 3 3 3 4 6 9 11 17 13 9 11 15 17
1 2 5 17 8 3 4 8 7 6 11 9 7 11 8 8 6 3 9 2 3 3 4 2 2 2 5 4 6 9 3 4 3 3 3 4 4 4 7 12 15 7 12 16 17
1 3 6 7 5 3 9 8 7 10 13 7 8 10 9 6 7 6 2 1 2 2 7 3 2 2 1 7 9 5 4 4 1 3 2 3 3 10 18 21 10 7 9 13 15
2 2 3 3 4 3 10 7 6 14 14 13 7 13 5 8 4 4 3 1 3 3 5 3 3 4 9 7 10 5 2 6 3 4 4 1 5 15 18 16 18 7 6 4 16
2 3 4 4 3 7 4 10 12 18 17 5 6 5 11 6 4 2 5 5 5 4 3 4 1 3 6 2 7 3 8 9 4 0 5 4 2 9 15 18 20 13 13 10 8
2 3 3 2 3 5 6 11 13 12 15 16 16 15 15 7 3 4 3 4 4 3 6 4 1 4 3 4 2 4 5 5 8 4 7 7 4 4 12 15 17 14 15 19 18
3 4 3 3 3 8 7 6 13 12 13 16 7 15 14 4 5 5 1 3 2 8 3 3 2 2 7 12 14 15 16 14 10 12 7 7 5 4 4 10 10 9 14 20 19
2 2 3 2 7 1 9 9 14 7 4 6 3 6 1 2 2 3 2 1 3 2 3 1 3 2 5 7 7 14 16 17 17 19 14 20 7 3 5 1 9 4 13 19 17
2 3 1 4 5 6 3 9 5 5 9 12 6 6 3 1 2 4 4 4 2 6 7 4 1 1 4 7 12 11 10 14 13 15 18 17 13 1 9 8 9 9 13 17 16
Wind_Direction
352 349 342 339 335 331 328 329 324 324 326 327 329 329 325 324 320 296 242 228 193 214 205 249 189 194 133 216 203 123 182 203 223 249 261 286 315 312 303 242 215 196 156 197 135
346 341 336 335 331 328 329 326 322 322 326 326 327 327 321 324 310 263 238 233 217 201 192 203 227 173 181 208 206 163 203 223 224 244 263 281 274 288 312 287 277 34 16 124 140
339 341 334 331 330 334 330 324 319 320 323 324 326 325 320 324 301 249 193 220 226 196 258 251 204 183 196 192 206 215 235 234 252 252 263 279 282 283 263 279 242 207 169 157 167
331 335 334 330 328 325 322 319 314 316 318 321 324 326 321 289 295 306 142 208 244 206 214 189 145 185 209 203 235 260 262 226 248 252 261 268 272 278 230 247 249 199 174 172 183
328 327 326 327 324 323 320 314 310 310 312 316 321 328 337 307 250 287 324 295 257 233 212 205 184 172 219 216 224 237 244 251 254 257 258 268 266 263 272 261 242 209 174 186 193
323 324 322 325 325 320 317 312 308 306 308 310 312 321 261 274 251 256 360 325 237 226 264 204 236 234 246 234 222 270 252 255 253 252 256 257 266 264 265 251 247 191 180 186 192
326 328 319 322 323 321 314 309 306 301 300 298 301 290 257 250 270 304 319 247 220 215 250 224 238 226 304 303 248 264 264 269 252 245 260 256 273 261 250 256 250 250 211 184 190
324 327 324 326 322 317 313 310 303 296 291 287 286 230 254 253 254 268 219 278 247 257 211 244 240 240 194 264 309 294 275 259 266 255 258 194 264 270 266 241 246 245 237 200 186
323 326 326 324 321 319 317 312 302 294 289 262 177 197 259 290 214 250 183 226 278 255 252 242 137 215 257 247 321 212 259 265 281 246 264 233 271 272 253 249 254 247 237 201 190
320 325 328 324 321 322 320 313 294 303 102 145 200 231 256 257 56 302 198 214 220 343 343 126 89 212 9 129 237 227 266 261 261 259 281 307 284 290 278 256 249 243 216 186 179
316 325 332 327 322 325 329 341 8 341 35 244 226 256 289 303 331 333 347 358 251 143 183 245 161 229 225 234 242 270 279 276 288 294 325 284 285 284 287 290 252 238 195 190 192
323 332 332 329 321 324 336 359 344 301 290 259 252 251 251 272 292 289 79 188 186 191 223 303 236 236 222 235 266 263 258 269 286 290 283 284 278 287 285 270 258 223 197 189 139
321 328 328 326 319 342 309 279 333 336 273 285 239 232 235 198 230 259 183 181 185 210 220 215 236 213 218 264 293 277 260 272 286 322 297 272 280 281 297 312 221 218 201 169 165
321 321 321 331 354 328 300 340 329 324 286 267 216 231 172 162 220 206 191 150 197 207 160 242 304 256 316 270 265 271 252 261 289 322 279 94 281 283 286 296 277 235 208 177 175
313 311 311 318 276 335 297 321 320 45 311 223 172 154 150 166 140 190 165 110 176 164 139 240 200 221 243 250 253 263 250 268 302 280 286 257 259 267 276 286 281 267 221 180 176
310 303 305 326 343 251 328 318 337 26 246 296 142 169 150 201 200 125 135 80 142 137 292 224 192 200 207 241 296 264 314 279 274 242 254 243 182 268 257 249 269 268 242 182 177
312 318 313 255 250 318 341 338 105 226 311 242 236 181 184 185 191 161 168 169 162 144 223 284 240 235 147 189 241 224 215 209 238 211 244 234 206 242 264 256 253 264 270 187 174
299 315 284 246 263 343 13 258 225 246 256 327 334 278 188 190 195 174 137 193 242 114 137 174 324 162 174 203 203 214 199 241 202 207 256 220 231 239 230 245 244 251 280 170 164
299 310 283 246 241 114 229 227 224 213 331 347 329 272 226 184 181 136 173 180 180 172 171 185 264 303 174 161 174 178 208 258 343 281 280 262 279 225 258 266 272 254 152 166 165
315 277 264 248 168 141 236 235 224 259 346 343 329 342 2 2 28 310 171 357 106 91 141 141 271 314 354 118 214 227 325 178 187 242 248 269 257 271 0 315 275 194 184 167 169
325 300 260 233 107 196 221 243 272 278 296 323 322 306 315 5 357 330 105 154 55 75 80 99 132 319 138 205 202 195 208 202 185 248 304 306 266 27 1 312 298 162 169 166 166
283 252 296 97 182 206 231 237 278 283 299 285 278 274 316 337 351 335 24 37 177 111 136 66 166 240 238 232 192 167 252 236 192 189 245 109 276 12 349 354 359 63 38 146 168
248 267 286 140 264 226 265 251 255 272 270 290 314 304 326 316 323 10 70 40 70 77 139 176 179 304 307 92 179 227 220 231 254 268 221 191 235 23 330 1 2 18 43 53 114
258 284 283 161 181 253 238 256 255 260 260 248 254 277 293 326 340 313 101 175 135 121 120 84 209 205 248 310 299 281 297 310 248 226 227 222 287 74 308 337 345 356 59 65 70
196 250 233 300 252 223 215 260 261 248 252 269 258 239 257 287 334 299 357 132 150 141 76 100 244 243 260 264 270 266 257 259 259 252 233 232 227 112 124 313 331 330 63 65 66
231 221 318 276 285 317 267 200 232 239 245 290 286 298 89 78 9 329 13 175 181 213 130 139 272 302 282 279 288 265 271 255 244 252 246 243 235 310 195 88 314 333 70 73 64
213 265 261 297 307 319 291 5 333 321 235 245 281 304 336 127 238 248 270 289 220 152 176 168 195 357 265 295 300 274 276 260 237 243 227 218 227 110 170 91 334 336 62 84 78